| time (UTC) | temp F | wind direction | speed MPH | gust MPH | rain 1hr in | rain 24hr in | rain mn in | humidity % | barometer mb |
| 20260906224945 | 77 | 212 | 9.0 | 16.0 | 0.00 | 0.00 | 0.00 | 27 | 1025.7 |
| 20260906224719 | 78 | 194 | 11.0 | 19.0 | 0.00 | 0.00 | 0.00 | 26 | 1025.7 |
| 20260906223946 | 78 | 259 | 10.0 | 19.0 | 0.00 | 0.00 | 0.00 | 27 | 1025.7 |
| 20260906223444 | 78 | 205 | 8.0 | 13.0 | 0.00 | 0.00 | 0.00 | 26 | 1025.8 |
| 20260906222945 | 78 | 194 | 8.0 | 16.0 | 0.00 | 0.00 | 0.00 | 27 | 1025.8 |
| 20260906222448 | 77 | 207 | 8.0 | 16.0 | 0.00 | 0.00 | 0.00 | 29 | 1025.7 |
| 20260906221942 | 77 | 163 | 9.0 | 16.0 | 0.00 | 0.00 | 0.00 | 28 | 1025.8 |
| 20260906221442 | 77 | 200 | 9.0 | 15.0 | 0.00 | 0.00 | 0.00 | 28 | 1025.8 |
| 20260906220939 | 76 | 213 | 9.0 | 15.0 | 0.00 | 0.00 | 0.00 | 28 | 1025.8 |
| 20260906220439 | 77 | 209 | 9.0 | 17.0 | 0.00 | 0.00 | 0.00 | 28 | 1025.9 |
| 20260906215938 | 77 | 212 | 9.0 | 17.0 | 0.00 | 0.00 | 0.00 | 28 | 1025.9 |
| 20260906215440 | 76 | 194 | 9.0 | 16.0 | 0.00 | 0.00 | 0.00 | 28 | 1025.9 |
| 20260906214937 | 77 | 175 | 10.0 | 18.0 | 0.00 | 0.00 | 0.00 | 28 | 1025.9 |
| 20260906214437 | 77 | 212 | 9.0 | 18.0 | 0.00 | 0.00 | 0.00 | 29 | 1026.1 |
| 20260906214208 | 77 | 182 | 9.0 | 19.0 | 0.00 | 0.00 | 0.00 | 28 | 1026.1 |
| 20260906213435 | 77 | 219 | 9.0 | 19.0 | 0.00 | 0.00 | 0.00 | 28 | 1026.1 |
| 20260906212935 | 78 | 200 | 10.0 | 19.0 | 0.00 | 0.00 | 0.00 | 27 | 1026.1 |
| 20260906212433 | 78 | 188 | 9.0 | 19.0 | 0.00 | 0.00 | 0.00 | 27 | 1026.2 |
| 20260906212205 | 77 | 178 | 8.0 | 18.0 | 0.00 | 0.00 | 0.00 | 28 | 1026.2 |
| 20260906211433 | 77 | 217 | 9.0 | 18.0 | 0.00 | 0.00 | 0.00 | 28 | 1026.3 |
| 20260906210934 | 77 | 215 | 9.0 | 17.0 | 0.00 | 0.00 | 0.00 | 29 | 1026.3 |
| 20260906210432 | 77 | 221 | 9.0 | 18.0 | 0.00 | 0.00 | 0.00 | 29 | 1026.5 |
| 20260906210205 | 76 | 207 | 10.0 | 18.0 | 0.00 | 0.00 | 0.00 | 28 | 1026.6 |
| 20260906205706 | 77 | 212 | 9.0 | 18.0 | 0.00 | 0.00 | 0.00 | 28 | 1026.6 |
| 20260906204932 | 77 | 205 | 8.0 | 16.0 | 0.00 | 0.00 | 0.00 | 29 | 1026.6 |
| 20260906204430 | 77 | 190 | 9.0 | 16.0 | 0.00 | 0.00 | 0.00 | 28 | 1026.7 |
| 20260906203930 | 77 | 190 | 10.0 | 15.0 | 0.00 | 0.00 | 0.00 | 28 | 1026.7 |
| 20260906203432 | 77 | 196 | 9.0 | 16.0 | 0.00 | 0.00 | 0.00 | 28 | 1026.6 |
| 20260906202930 | 77 | 196 | 9.0 | 16.0 | 0.00 | 0.00 | 0.00 | 29 | 1026.6 |
| 20260906202432 | 76 | 200 | 9.0 | 18.0 | 0.00 | 0.00 | 0.00 | 29 | 1026.7 |
| 20260906202200 | 77 | 204 | 10.0 | 18.0 | 0.00 | 0.00 | 0.00 | 27 | 1026.7 |
| 20260906201428 | 78 | 227 | 11.0 | 17.0 | 0.00 | 0.00 | 0.00 | 27 | 1026.7 |
| 20260906200927 | 78 | 205 | 10.0 | 19.0 | 0.00 | 0.00 | 0.00 | 27 | 1026.9 |
| 20260906200427 | 77 | 194 | 7.0 | 19.0 | 0.00 | 0.00 | 0.00 | 27 | 1026.7 |
| 20260906195926 | 77 | 137 | 4.0 | 10.0 | 0.00 | 0.00 | 0.00 | 27 | 1026.9 |
| 20260906195428 | 77 | 94 | 4.0 | 12.0 | 0.00 | 0.00 | 0.00 | 26 | 1026.7 |
| 20260906194922 | 77 | 187 | 6.0 | 12.0 | 0.00 | 0.00 | 0.00 | 27 | 1026.9 |
| 20260906194424 | 78 | 216 | 6.0 | 11.0 | 0.00 | 0.00 | 0.00 | 26 | 1026.9 |
| 20260906194153 | 78 | 209 | 5.0 | 10.0 | 0.00 | 0.00 | 0.00 | 26 | 1026.7 |
| 20260906193422 | 78 | 147 | 4.0 | 9.0 | 0.00 | 0.00 | 0.00 | 26 | 1026.9 |
| 20260906192924 | 77 | 121 | 3.0 | 7.0 | 0.00 | 0.00 | 0.00 | 26 | 1027.0 |
| 20260906192424 | 77 | 206 | 4.0 | 11.0 | 0.00 | 0.00 | 0.00 | 26 | 1027.0 |
| 20260906191919 | 77 | 65 | 5.0 | 11.0 | 0.00 | 0.00 | 0.00 | 26 | 1027.2 |
| 20260906191420 | 76 | 234 | 4.0 | 10.0 | 0.00 | 0.00 | 0.00 | 27 | 1027.4 |
| 20260906190918 | 76 | 93 | 4.0 | 11.0 | 0.00 | 0.00 | 0.00 | 27 | 1027.4 |
| 20260906190649 | 76 | 208 | 4.0 | 11.0 | 0.00 | 0.00 | 0.00 | 26 | 1027.5 |
| 20260906185919 | 76 | 250 | 5.0 | 12.0 | 0.00 | 0.00 | 0.00 | 27 | 1027.6 |
| 20260906185419 | 76 | 96 | 4.0 | 12.0 | 0.00 | 0.00 | 0.00 | 26 | 1027.6 |
| 20260906184920 | 76 | 134 | 4.0 | 9.0 | 0.00 | 0.00 | 0.00 | 27 | 1027.8 |
| 20260906184419 | 75 | 293 | 5.0 | 9.0 | 0.00 | 0.00 | 0.00 | 27 | 1027.8 |
| 20260906183919 | 75 | 38 | 4.0 | 9.0 | 0.00 | 0.00 | 0.00 | 27 | 1027.9 |
| 20260906183419 | 75 | 130 | 5.0 | 9.0 | 0.00 | 0.00 | 0.00 | 27 | 1028.0 |
| 20260906182918 | 75 | 142 | 5.0 | 9.0 | 0.00 | 0.00 | 0.00 | 28 | 1028.0 |
| 20260906182420 | 74 | 105 | 5.0 | 10.0 | 0.00 | 0.00 | 0.00 | 27 | 1028.2 |
| 20260906181919 | 74 | 81 | 6.0 | 10.0 | 0.00 | 0.00 | 0.00 | 28 | 1028.3 |
| 20260906181414 | 74 | 109 | 5.0 | 9.0 | 0.00 | 0.00 | 0.00 | 27 | 1028.3 |
| 20260906180914 | 74 | 121 | 4.0 | 9.0 | 0.00 | 0.00 | 0.00 | 27 | 1028.6 |
| 20260906180415 | 73 | 76 | 5.0 | 8.0 | 0.00 | 0.00 | 0.00 | 28 | 1028.7 |
| 20260906175915 | 73 | 78 | 5.0 | 9.0 | 0.00 | 0.00 | 0.00 | 29 | 1028.7 |
| 20260906175647 | 73 | 126 | 5.0 | 9.0 | 0.00 | 0.00 | 0.00 | 28 | 1028.7 |
| 20260906174916 | 73 | 159 | 4.0 | 8.0 | 0.00 | 0.00 | 0.00 | 28 | 1028.8 |
| 20260906174647 | 73 | 122 | 4.0 | 8.0 | 0.00 | 0.00 | 0.00 | 28 | 1028.9 |
| 20260906173911 | 72 | 109 | 4.0 | 11.0 | 0.00 | 0.00 | 0.00 | 27 | 1029.1 |
| 20260906173411 | 71 | 161 | 4.0 | 11.0 | 0.00 | 0.00 | 0.00 | 26 | 1029.3 |
| 20260906173141 | 71 | 152 | 3.0 | 8.0 | 0.00 | 0.00 | 0.00 | 28 | 1029.3 |
| 20260906172410 | 70 | 223 | 3.0 | 8.0 | 0.00 | 0.00 | 0.00 | 28 | 1029.5 |
| 20260906171910 | 69 | 177 | 2.0 | 7.0 | 0.00 | 0.00 | 0.00 | 33 | 1029.5 |
| 20260906171412 | 69 | 157 | 2.0 | 7.0 | 0.00 | 0.00 | 0.00 | 38 | 1029.6 |
| 20260906170910 | 68 | 169 | 2.0 | 4.0 | 0.00 | 0.00 | 0.00 | 38 | 1029.5 |
| 20260906170635 | 67 | 137 | 3.0 | 6.0 | 0.00 | 0.00 | 0.00 | 39 | 1029.6 |
| 20260906165905 | 66 | 217 | 2.0 | 6.0 | 0.00 | 0.00 | 0.00 | 42 | 1029.6 |
| 20260906165403 | 65 | 186 | 2.0 | 5.0 | 0.00 | 0.00 | 0.00 | 42 | 1029.6 |
| 20260906164901 | 65 | 213 | 2.0 | 5.0 | 0.00 | 0.00 | 0.00 | 42 | 1029.7 |
| 20260906164401 | 64 | 152 | 3.0 | 6.0 | 0.00 | 0.00 | 0.00 | 44 | 1029.9 |
| 20260906164133 | 64 | 111 | 3.0 | 6.0 | 0.00 | 0.00 | 0.00 | 44 | 1030.0 |
| 20260906163354 | 63 | 98 | 2.0 | 6.0 | 0.00 | 0.00 | 0.00 | 45 | 1030.0 |
| 20260906162855 | 62 | 87 | 2.0 | 5.0 | 0.00 | 0.00 | 0.00 | 46 | 1030.0 |
| 20260906162355 | 61 | 65 | 2.0 | 6.0 | 0.00 | 0.00 | 0.00 | 48 | 1030.1 |
| 20260906162125 | 61 | 344 | 2.0 | 6.0 | 0.00 | 0.00 | 0.00 | 48 | 1030.1 |
| 20260906161354 | 60 | 39 | 3.0 | 7.0 | 0.00 | 0.00 | 0.00 | 49 | 1030.1 |
| 20260906160855 | 60 | 162 | 3.0 | 7.0 | 0.00 | 0.00 | 0.00 | 50 | 1030.3 |
| 20260906160355 | 60 | 86 | 3.0 | 7.0 | 0.00 | 0.00 | 0.00 | 52 | 1030.3 |
| 20260906155849 | 59 | 166 | 2.0 | 6.0 | 0.00 | 0.00 | 0.00 | 52 | 1030.3 |
| 20260906155348 | 58 | 150 | 2.0 | 6.0 | 0.00 | 0.00 | 0.00 | 52 | 1030.5 |
| 20260906155119 | 58 | 205 | 2.0 | 5.0 | 0.00 | 0.00 | 0.00 | 54 | 1030.5 |
| 20260906154619 | 57 | 212 | 3.0 | 6.0 | 0.00 | 0.00 | 0.00 | 55 | 1030.5 |
| 20260906153849 | 56 | 155 | 3.0 | 6.0 | 0.00 | 0.00 | 0.00 | 56 | 1030.6 |
| 20260906153349 | 56 | 171 | 2.0 | 5.0 | 0.00 | 0.00 | 0.00 | 57 | 1030.8 |
| 20260906152843 | 55 | 228 | 3.0 | 5.0 | 0.00 | 0.00 | 0.00 | 59 | 1030.9 |
| 20260906152343 | 54 | 170 | 3.0 | 7.0 | 0.00 | 0.00 | 0.00 | 60 | 1031.0 |
| 20260906151843 | 54 | 250 | 4.0 | 7.0 | 0.00 | 0.00 | 0.00 | 62 | 1031.0 |
| 20260906151343 | 53 | 184 | 4.0 | 8.0 | 0.00 | 0.00 | 0.00 | 63 | 1031.2 |
| 20260906150843 | 52 | 134 | 4.0 | 8.0 | 0.00 | 0.00 | 0.00 | 65 | 1031.2 |
| 20260906150342 | 51 | 167 | 5.0 | 9.0 | 0.00 | 0.00 | 0.00 | 67 | 1031.2 |
| 20260906145837 | 50 | 188 | 6.0 | 10.0 | 0.00 | 0.00 | 0.00 | 68 | 1031.2 |
| 20260906145337 | 50 | 151 | 6.0 | 10.0 | 0.00 | 0.00 | 0.00 | 71 | 1031.2 |
| 20260906144837 | 49 | 147 | 6.0 | 9.0 | 0.00 | 0.00 | 0.00 | 74 | 1031.3 |
| 20260906144337 | 48 | 153 | 6.0 | 10.0 | 0.00 | 0.00 | 0.00 | 74 | 1031.3 |
| 20260906143837 | 48 | 151 | 6.0 | 10.0 | 0.00 | 0.00 | 0.00 | 76 | 1031.3 |
| 20260906143337 | 47 | 155 | 5.0 | 10.0 | 0.00 | 0.00 | 0.00 | 76 | 1031.2 |
| 20260906142830 | 47 | 177 | 6.0 | 10.0 | 0.00 | 0.00 | 0.00 | 78 | 1031.3 |
| 20260906142331 | 46 | 158 | 6.0 | 10.0 | 0.00 | 0.00 | 0.00 | 79 | 1031.3 |
| 20260906141831 | 45 | 169 | 5.0 | 9.0 | 0.00 | 0.00 | 0.00 | 81 | 1031.3 |
| 20260906141331 | 44 | 165 | 5.0 | 7.0 | 0.00 | 0.00 | 0.00 | 83 | 1031.4 |
| 20260906140831 | 44 | 151 | 4.0 | 7.0 | 0.00 | 0.00 | 0.00 | 85 | 1031.3 |
| 20260906140602 | 42 | 159 | 5.0 | 7.0 | 0.00 | 0.00 | 0.00 | 88 | 1031.3 |
| 20260906135825 | 41 | 170 | 5.0 | 9.0 | 0.00 | 0.00 | 0.00 | 90 | 1031.2 |
| 20260906135327 | 40 | 152 | 6.0 | 9.0 | 0.00 | 0.00 | 0.00 | 90 | 1031.2 |
| 20260906134825 | 39 | 146 | 4.0 | 9.0 | 0.00 | 0.00 | 0.00 | 90 | 1031.0 |
| 20260906134325 | 38 | 159 | 3.0 | 7.0 | 0.00 | 0.00 | 0.00 | 90 | 1031.2 |
| 20260906133827 | 38 | 171 | 3.0 | 6.0 | 0.00 | 0.00 | 0.00 | 89 | 1030.9 |
| 20260906133324 | 38 | 197 | 3.0 | 6.0 | 0.00 | 0.00 | 0.00 | 90 | 1030.9 |
| 20260906133049 | 38 | 171 | 3.0 | 6.0 | 0.00 | 0.00 | 0.00 | 91 | 1030.9 |
| 20260906132316 | 38 | 188 | 4.0 | 6.0 | 0.00 | 0.00 | 0.00 | 90 | 1030.9 |
| 20260906131816 | 38 | 158 | 4.0 | 6.0 | 0.00 | 0.00 | 0.00 | 90 | 1030.8 |
| 20260906131317 | 37 | 190 | 3.0 | 6.0 | 0.00 | 0.00 | 0.00 | 91 | 1030.6 |
| 20260906130817 | 37 | 203 | 2.0 | 5.0 | 0.00 | 0.00 | 0.00 | 89 | 1030.6 |
| 20260906130549 | 37 | 163 | 2.0 | 4.0 | 0.00 | 0.00 | 0.00 | 88 | 1030.5 |
| 20260906125813 | 38 | 157 | 3.0 | 5.0 | 0.00 | 0.00 | 0.00 | 88 | 1030.4 |
| 20260906125544 | 38 | 227 | 5.0 | 9.0 | 0.00 | 0.00 | 0.00 | 89 | 1030.3 |
| 20260906125043 | 38 | 250 | 6.0 | 9.0 | 0.00 | 0.00 | 0.00 | 89 | 1030.3 |
| 20260906124313 | 38 | 258 | 4.0 | 9.0 | 0.00 | 0.00 | 0.00 | 90 | 1030.3 |
| 20260906123811 | 37 | 272 | 2.0 | 4.0 | 0.00 | 0.00 | 0.00 | 90 | 1030.3 |
| 20260906123543 | 37 | 251 | 1.0 | 3.0 | 0.00 | 0.00 | 0.00 | 88 | 1030.3 |
| 20260906122808 | 38 | 178 | 2.0 | 5.0 | 0.00 | 0.00 | 0.00 | 86 | 1030.3 |
| 20260906122308 | 38 | 175 | 4.0 | 6.0 | 0.00 | 0.00 | 0.00 | 87 | 1030.3 |
| 20260906121809 | 39 | 170 | 4.0 | 6.0 | 0.00 | 0.00 | 0.00 | 88 | 1030.3 |
| 20260906121308 | 39 | 163 | 3.0 | 6.0 | 0.00 | 0.00 | 0.00 | 90 | 1030.1 |
| 20260906120808 | 38 | 202 | 3.0 | 5.0 | 0.00 | 0.00 | 0.00 | 91 | 1030.1 |
| 20260906120308 | 37 | 206 | 2.0 | 5.0 | 0.00 | 0.00 | 0.00 | 91 | 1030.0 |
| 20260906115809 | 37 | 178 | 2.0 | 5.0 | 0.00 | 0.00 | 0.00 | 89 | 1030.1 |
| 20260906115306 | 37 | 156 | 3.0 | 5.0 | 0.00 | 0.00 | 0.00 | 88 | 1030.1 |
| 20260906114802 | 37 | 149 | 3.0 | 5.0 | 0.00 | 0.00 | 0.00 | 88 | 1030.1 |
| 20260906114302 | 37 | 163 | 2.0 | 5.0 | 0.00 | 0.00 | 0.00 | 88 | 1030.0 |
| 20260906113803 | 37 | 217 | 2.0 | 4.0 | 0.00 | 0.00 | 0.00 | 88 | 1030.0 |
| 20260906113302 | 38 | 242 | 2.0 | 4.0 | 0.00 | 0.00 | 0.00 | 88 | 1030.0 |
| 20260906112803 | 38 | 233 | 0.0 | 3.0 | 0.00 | 0.00 | 0.00 | 85 | 1030.0 |
| 20260906112259 | 39 | 199 | 0.0 | 1.0 | 0.00 | 0.00 | 0.00 | 86 | 1030.0 |
| 20260906112031 | 39 | 199 | 0.0 | 1.0 | 0.00 | 0.00 | 0.00 | 86 | 1030.0 |
| 20260906111529 | 39 | 199 | 1.0 | 4.0 | 0.00 | 0.00 | 0.00 | 84 | 1030.0 |
| 20260906110759 | 40 | 199 | 2.0 | 4.0 | 0.00 | 0.00 | 0.00 | 84 | 1029.9 |
| 20260906110257 | 40 | 264 | 2.0 | 4.0 | 0.00 | 0.00 | 0.00 | 86 | 1029.7 |
| 20260906105757 | 40 | 250 | 2.0 | 6.0 | 0.00 | 0.00 | 0.00 | 86 | 1029.7 |
| 20260906105252 | 40 | 267 | 3.0 | 6.0 | 0.00 | 0.00 | 0.00 | 85 | 1029.6 |
| 20260906104752 | 40 | 202 | 3.0 | 6.0 | 0.00 | 0.00 | 0.00 | 86 | 1029.7 |
| 20260906104251 | 40 | 155 | 3.0 | 6.0 | 0.00 | 0.00 | 0.00 | 85 | 1029.7 |
| 20260906103751 | 40 | 144 | 3.0 | 5.0 | 0.00 | 0.00 | 0.00 | 85 | 1029.7 |
| 20260906103523 | 40 | 144 | 2.0 | 5.0 | 0.00 | 0.00 | 0.00 | 85 | 1029.6 |
| 20260906102753 | 41 | 173 | 2.0 | 6.0 | 0.00 | 0.00 | 0.00 | 84 | 1029.6 |
| 20260906102252 | 41 | 167 | 1.0 | 6.0 | 0.00 | 0.00 | 0.00 | 87 | 1029.6 |
| 20260906101752 | 41 | 177 | 3.0 | 5.0 | 0.00 | 0.00 | 0.00 | 84 | 1029.6 |
| 20260906101249 | 41 | 163 | 4.0 | 7.0 | 0.00 | 0.00 | 0.00 | 84 | 1029.6 |
| 20260906101021 | 41 | 169 | 3.0 | 7.0 | 0.00 | 0.00 | 0.00 | 84 | 1029.6 |
| 20260906100251 | 41 | 171 | 2.0 | 4.0 | 0.00 | 0.00 | 0.00 | 83 | 1029.6 |
| 20260906095746 | 42 | 206 | 3.0 | 4.0 | 0.00 | 0.00 | 0.00 | 83 | 1029.7 |
| 20260906095246 | 42 | 189 | 3.0 | 4.0 | 0.00 | 0.00 | 0.00 | 83 | 1029.7 |
| 20260906094746 | 42 | 229 | 3.0 | 5.0 | 0.00 | 0.00 | 0.00 | 83 | 1029.7 |
| 20260906094246 | 42 | 214 | 3.0 | 5.0 | 0.00 | 0.00 | 0.00 | 83 | 1029.5 |
| 20260906093747 | 42 | 196 | 3.0 | 4.0 | 0.00 | 0.00 | 0.00 | 84 | 1029.3 |
| 20260906093247 | 41 | 218 | 3.0 | 5.0 | 0.00 | 0.00 | 0.00 | 86 | 1029.5 |
| 20260906093013 | 41 | 186 | 4.0 | 8.0 | 0.00 | 0.00 | 0.00 | 84 | 1029.5 |
| 20260906092243 | 42 | 173 | 5.0 | 8.0 | 0.00 | 0.00 | 0.00 | 82 | 1029.3 |
| 20260906091743 | 42 | 146 | 4.0 | 7.0 | 0.00 | 0.00 | 0.00 | 82 | 1029.3 |
| 20260906091241 | 43 | 167 | 1.0 | 5.0 | 0.00 | 0.00 | 0.00 | 80 | 1029.2 |
| 20260906090742 | 43 | 205 | 1.0 | 4.0 | 0.00 | 0.00 | 0.00 | 80 | 1029.2 |
| 20260906090243 | 44 | 193 | 1.0 | 4.0 | 0.00 | 0.00 | 0.00 | 79 | 1029.3 |
| 20260906085737 | 44 | 184 | 1.0 | 3.0 | 0.00 | 0.00 | 0.00 | 79 | 1029.3 |
| 20260906085238 | 44 | 190 | 2.0 | 4.0 | 0.00 | 0.00 | 0.00 | 80 | 1029.2 |
| 20260906085011 | 44 | 188 | 2.0 | 5.0 | 0.00 | 0.00 | 0.00 | 80 | 1029.3 |
| 20260906084237 | 44 | 199 | 1.0 | 5.0 | 0.00 | 0.00 | 0.00 | 81 | 1029.2 |
| 20260906083738 | 44 | 232 | 0.0 | 3.0 | 0.00 | 0.00 | 0.00 | 78 | 1029.3 |
| 20260906083239 | 44 | 184 | 0.0 | 2.0 | 0.00 | 0.00 | 0.00 | 77 | 1029.5 |
| 20260906082734 | 45 | 184 | 1.0 | 3.0 | 0.00 | 0.00 | 0.00 | 75 | 1029.5 |
| 20260906082506 | 46 | 195 | 1.0 | 3.0 | 0.00 | 0.00 | 0.00 | 74 | 1029.5 |
| 20260906082005 | 46 | 221 | 2.0 | 4.0 | 0.00 | 0.00 | 0.00 | 74 | 1029.3 |
| 20260906081234 | 46 | 221 | 2.0 | 4.0 | 0.00 | 0.00 | 0.00 | 75 | 1029.5 |
| 20260906081004 | 46 | 241 | 2.0 | 6.0 | 0.00 | 0.00 | 0.00 | 76 | 1029.6 |
| 20260906080507 | 46 | 254 | 3.0 | 6.0 | 0.00 | 0.00 | 0.00 | 75 | 1029.6 |
| 20260906080004 | 46 | 223 | 2.0 | 5.0 | 0.00 | 0.00 | 0.00 | 75 | 1029.5 |
| 20260906075233 | 46 | 169 | 3.0 | 5.0 | 0.00 | 0.00 | 0.00 | 75 | 1029.5 |
| 20260906074734 | 46 | 182 | 3.0 | 6.0 | 0.00 | 0.00 | 0.00 | 75 | 1029.5 |
| 20260906074231 | 46 | 184 | 4.0 | 7.0 | 0.00 | 0.00 | 0.00 | 76 | 1029.3 |
| 20260906073733 | 46 | 161 | 3.0 | 7.0 | 0.00 | 0.00 | 0.00 | 74 | 1029.3 |
| 20260906073232 | 47 | 147 | 2.0 | 4.0 | 0.00 | 0.00 | 0.00 | 73 | 1029.5 |
| 20260906072725 | 47 | 211 | 3.0 | 7.0 | 0.00 | 0.00 | 0.00 | 73 | 1029.5 |
| 20260906072225 | 47 | 244 | 3.0 | 7.0 | 0.00 | 0.00 | 0.00 | 74 | 1029.3 |
| 20260906071727 | 47 | 259 | 3.0 | 6.0 | 0.00 | 0.00 | 0.00 | 73 | 1029.3 |
| 20260906071454 | 47 | 238 | 3.0 | 6.0 | 0.00 | 0.00 | 0.00 | 73 | 1029.3 |
| 20260906070725 | 47 | 219 | 3.0 | 6.0 | 0.00 | 0.00 | 0.00 | 72 | 1029.3 |
| 20260906070223 | 47 | 246 | 3.0 | 5.0 | 0.00 | 0.00 | 0.00 | 72 | 1029.2 |
| 20260906065725 | 48 | 254 | 2.0 | 3.0 | 0.00 | 0.00 | 0.00 | 71 | 1029.3 |
| 20260906065219 | 48 | 261 | 1.0 | 3.0 | 0.00 | 0.00 | 0.00 | 70 | 1029.2 |
| 20260906064720 | 49 | 269 | 1.0 | 4.0 | 0.00 | 0.00 | 0.00 | 70 | 1029.2 |
| 20260906064219 | 49 | 271 | 2.0 | 4.0 | 0.00 | 0.00 | 0.00 | 70 | 1029.3 |
| 20260906063719 | 49 | 250 | 2.0 | 4.0 | 0.00 | 0.00 | 0.00 | 68 | 1029.2 |
| 20260906063220 | 50 | 225 | 3.0 | 4.0 | 0.00 | 0.00 | 0.00 | 66 | 1029.2 |
| 20260906062721 | 50 | 211 | 3.0 | 5.0 | 0.00 | 0.00 | 0.00 | 67 | 1029.2 |
| 20260906062221 | 51 | 225 | 3.0 | 6.0 | 0.00 | 0.00 | 0.00 | 66 | 1029.1 |
| 20260906062216 | 51 | 223 | 3.0 | 6.0 | 0.00 | 0.00 | 0.00 | 65 | 1029.1 |
| 20260906061215 | 51 | 193 | 3.0 | 5.0 | 0.00 | 0.00 | 0.00 | 66 | 1029.1 |
| 20260906060715 | 51 | 188 | 5.0 | 8.0 | 0.00 | 0.00 | 0.00 | 65 | 1028.9 |
| 20260906060216 | 52 | 166 | 5.0 | 8.0 | 0.00 | 0.00 | 0.00 | 64 | 1028.9 |
| 20260906055717 | 52 | 169 | 3.0 | 7.0 | 0.00 | 0.00 | 0.00 | 62 | 1028.9 |
| 20260906055212 | 53 | 205 | 3.0 | 6.0 | 0.00 | 0.00 | 0.00 | 61 | 1028.9 |
| 20260906054712 | 53 | 169 | 4.0 | 7.0 | 0.00 | 0.00 | 0.00 | 59 | 1028.8 |
| 20260906054211 | 53 | 181 | 4.0 | 7.0 | 0.00 | 0.00 | 0.00 | 58 | 1028.8 |
| 20260906053711 | 54 | 211 | 3.0 | 6.0 | 0.00 | 0.00 | 0.00 | 59 | 1028.8 |
| 20260906053443 | 53 | 239 | 3.0 | 6.0 | 0.00 | 0.00 | 0.00 | 59 | 1028.7 |
| 20260906052713 | 53 | 221 | 3.0 | 6.0 | 0.00 | 0.00 | 0.00 | 59 | 1028.7 |
| 20260906052207 | 53 | 254 | 4.0 | 6.0 | 0.00 | 0.00 | 0.00 | 59 | 1028.7 |
| 20260906051708 | 53 | 253 | 3.0 | 6.0 | 0.00 | 0.00 | 0.00 | 59 | 1028.7 |
| 20260906051208 | 53 | 231 | 3.0 | 7.0 | 0.00 | 0.00 | 0.00 | 59 | 1028.7 |
| 20260906050708 | 54 | 245 | 4.0 | 7.0 | 0.00 | 0.00 | 0.00 | 58 | 1028.7 |
| 20260906050209 | 54 | 270 | 3.0 | 6.0 | 0.00 | 0.00 | 0.00 | 57 | 1028.7 |
| 20260906045709 | 54 | 255 | 3.0 | 6.0 | 0.00 | 0.00 | 0.00 | 57 | 1028.7 |
| 20260906045204 | 54 | 248 | 3.0 | 6.0 | 0.00 | 0.00 | 0.00 | 57 | 1028.7 |
| 20260906044929 | 54 | 240 | 3.0 | 4.0 | 0.00 | 0.00 | 0.00 | 57 | 1028.6 |
| 20260906044157 | 55 | 271 | 3.0 | 7.0 | 0.00 | 0.00 | 0.00 | 57 | 1028.7 |
| 20260906043656 | 55 | 252 | 4.0 | 7.0 | 0.00 | 0.00 | 0.00 | 57 | 1028.7 |
| 20260906043156 | 55 | 246 | 4.0 | 6.0 | 0.00 | 0.00 | 0.00 | 56 | 1028.8 |
| 20260906042657 | 55 | 262 | 3.0 | 6.0 | 0.00 | 0.00 | 0.00 | 55 | 1028.7 |
| 20260906042156 | 55 | 238 | 3.0 | 5.0 | 0.00 | 0.00 | 0.00 | 54 | 1028.7 |
| 20260906041649 | 56 | 248 | 3.0 | 5.0 | 0.00 | 0.00 | 0.00 | 54 | 1028.7 |
| 20260906041149 | 56 | 215 | 3.0 | 7.0 | 0.00 | 0.00 | 0.00 | 53 | 1028.7 |
| 20260906040649 | 56 | 242 | 4.0 | 7.0 | 0.00 | 0.00 | 0.00 | 52 | 1028.7 |
| 20260906040151 | 58 | 245 | 3.0 | 6.0 | 0.00 | 0.00 | 0.00 | 50 | 1028.7 |
| 20260906035648 | 59 | 256 | 2.0 | 4.0 | 0.00 | 0.00 | 0.00 | 49 | 1028.6 |
| 20260906035148 | 60 | 243 | 2.0 | 4.0 | 0.00 | 0.00 | 0.00 | 48 | 1028.7 |
| 20260906034647 | 60 | 258 | 1.0 | 4.0 | 0.00 | 0.00 | 0.00 | 48 | 1028.7 |
| 20260906034144 | 60 | 261 | 1.0 | 3.0 | 0.00 | 0.00 | 0.00 | 47 | 1028.6 |
| 20260906033642 | 60 | 261 | 2.0 | 4.0 | 0.00 | 0.00 | 0.00 | 47 | 1028.6 |
| 20260906033139 | 61 | 261 | 2.0 | 4.0 | 0.00 | 0.00 | 0.00 | 46 | 1028.4 |
| 20260906032913 | 61 | 159 | 2.0 | 7.0 | 0.00 | 0.00 | 0.00 | 46 | 1028.4 |
| 20260906032140 | 61 | 217 | 2.0 | 7.0 | 0.00 | 0.00 | 0.00 | 46 | 1028.3 |
| 20260906031633 | 60 | 239 | 3.0 | 6.0 | 0.00 | 0.00 | 0.00 | 46 | 1028.3 |
| 20260906031134 | 60 | 271 | 3.0 | 6.0 | 0.00 | 0.00 | 0.00 | 46 | 1028.2 |
| 20260906030906 | 60 | 267 | 3.0 | 4.0 | 0.00 | 0.00 | 0.00 | 47 | 1028.0 |
| 20260906030133 | 60 | 215 | 3.0 | 5.0 | 0.00 | 0.00 | 0.00 | 46 | 1027.9 |
| 20260906025633 | 61 | 224 | 4.0 | 8.0 | 0.00 | 0.00 | 0.00 | 46 | 1027.8 |
| 20260906025133 | 61 | 184 | 5.0 | 8.0 | 0.00 | 0.00 | 0.00 | 46 | 1027.6 |
| 20260906024634 | 61 | 163 | 5.0 | 7.0 | 0.00 | 0.00 | 0.00 | 45 | 1027.6 |
| 20260906024359 | 62 | 163 | 4.0 | 7.0 | 0.00 | 0.00 | 0.00 | 44 | 1027.5 |
| 20260906023627 | 62 | 177 | 4.0 | 6.0 | 0.00 | 0.00 | 0.00 | 43 | 1027.4 |
| 20260906023132 | 63 | 199 | 4.0 | 8.0 | 0.00 | 0.00 | 0.00 | 41 | 1027.4 |
| 20260906023127 | 62 | 155 | 4.0 | 6.0 | 0.00 | 0.00 | 0.00 | 43 | 1027.4 |
| 20260906022127 | 63 | 171 | 5.0 | 8.0 | 0.00 | 0.00 | 0.00 | 40 | 1027.2 |
| 20260906021630 | 63 | 188 | 3.0 | 7.0 | 0.00 | 0.00 | 0.00 | 39 | 1027.0 |
| 20260906021626 | 64 | 159 | 4.0 | 7.0 | 0.00 | 0.00 | 0.00 | 39 | 1027.1 |
| 20260906020622 | 63 | 169 | 2.0 | 4.0 | 0.00 | 0.00 | 0.00 | 39 | 1027.0 |
| 20260906020119 | 63 | 200 | 3.0 | 4.0 | 0.00 | 0.00 | 0.00 | 39 | 1026.9 |
| 20260906015620 | 64 | 226 | 2.0 | 4.0 | 0.00 | 0.00 | 0.00 | 38 | 1026.9 |
| 20260906015121 | 65 | 243 | 2.0 | 4.0 | 0.00 | 0.00 | 0.00 | 37 | 1026.9 |
| 20260906014620 | 66 | 185 | 2.0 | 5.0 | 0.00 | 0.00 | 0.00 | 36 | 1026.9 |
| 20260906014116 | 66 | 144 | 2.0 | 5.0 | 0.00 | 0.00 | 0.00 | 36 | 1026.9 |
| 20260906013616 | 67 | 202 | 1.0 | 3.0 | 0.00 | 0.00 | 0.00 | 36 | 1026.9 |
| 20260906013344 | 67 | 180 | 2.0 | 6.0 | 0.00 | 0.00 | 0.00 | 36 | 1026.9 |
| 20260906012614 | 68 | 180 | 4.0 | 9.0 | 0.00 | 0.00 | 0.00 | 35 | 1026.9 |
| 20260906012114 | 69 | 191 | 5.0 | 10.0 | 0.00 | 0.00 | 0.00 | 34 | 1026.7 |
| 20260906011614 | 69 | 169 | 5.0 | 11.0 | 0.00 | 0.00 | 0.00 | 33 | 1026.7 |
| 20260906011107 | 70 | 179 | 6.0 | 13.0 | 0.00 | 0.00 | 0.00 | 31 | 1026.7 |
| 20260906010608 | 70 | 196 | 6.0 | 13.0 | 0.00 | 0.00 | 0.00 | 31 | 1026.9 |
| 20260906010108 | 71 | 205 | 6.0 | 11.0 | 0.00 | 0.00 | 0.00 | 31 | 1026.7 |
| 20260906005608 | 72 | 180 | 7.0 | 11.0 | 0.00 | 0.00 | 0.00 | 30 | 1026.7 |
| 20260906005108 | 72 | 209 | 7.0 | 12.0 | 0.00 | 0.00 | 0.00 | 29 | 1026.7 |
| 20260906004607 | 73 | 185 | 7.0 | 12.0 | 0.00 | 0.00 | 0.00 | 29 | 1026.9 |
| 20260906004105 | 73 | 188 | 8.0 | 14.0 | 0.00 | 0.00 | 0.00 | 29 | 1026.7 |
| 20260906003835 | 73 | 196 | 8.0 | 14.0 | 0.00 | 0.00 | 0.00 | 28 | 1026.7 |
| 20260906003102 | 73 | 209 | 8.0 | 15.0 | 0.00 | 0.00 | 0.00 | 28 | 1026.9 |
| 20260906002602 | 73 | 229 | 8.0 | 15.0 | 0.00 | 0.00 | 0.00 | 29 | 1026.9 |
| 20260906002102 | 73 | 157 | 8.0 | 16.0 | 0.00 | 0.00 | 0.00 | 29 | 1026.7 |
| 20260906001601 | 74 | 134 | 7.0 | 16.0 | 0.00 | 0.00 | 0.00 | 27 | 1026.6 |
| 20260906001058 | 74 | 190 | 6.0 | 17.0 | 0.00 | 0.00 | 0.00 | 27 | 1026.6 |
| 20260906000558 | 74 | 202 | 7.0 | 17.0 | 0.00 | 0.00 | 0.00 | 28 | 1026.6 |
| 20260906000057 | 75 | 177 | 7.0 | 16.0 | 0.00 | 0.00 | 0.00 | 26 | 1026.5 |
| 20260905235559 | 75 | 184 | 8.0 | 15.0 | 0.00 | 0.00 | 0.00 | 26 | 1026.5 |
| 20260905235056 | 76 | 203 | 9.0 | 15.0 | 0.00 | 0.00 | 0.00 | 27 | 1026.5 |
| 20260905234556 | 76 | 176 | 8.0 | 15.0 | 0.00 | 0.00 | 0.00 | 27 | 1026.5 |
| 20260905234050 | 76 | 169 | 8.0 | 16.0 | 0.00 | 0.00 | 0.00 | 27 | 1026.3 |
| 20260905233550 | 76 | 188 | 8.0 | 16.0 | 0.00 | 0.00 | 0.00 | 27 | 1026.6 |
| 20260905233048 | 76 | 192 | 8.0 | 16.0 | 0.00 | 0.00 | 0.00 | 27 | 1026.6 |
| 20260905232550 | 76 | 187 | 8.0 | 15.0 | 0.00 | 0.00 | 0.00 | 27 | 1026.5 |
| 20260905232051 | 76 | 196 | 8.0 | 16.0 | 0.00 | 0.00 | 0.00 | 27 | 1026.6 |
| 20260905231550 | 76 | 207 | 8.0 | 16.0 | 0.00 | 0.00 | 0.00 | 26 | 1026.6 |
| 20260905231044 | 76 | 209 | 9.0 | 19.0 | 0.00 | 0.00 | 0.00 | 25 | 1026.6 |
| 20260905230544 | 76 | 216 | 9.0 | 19.0 | 0.00 | 0.00 | 0.00 | 26 | 1026.5 |
| 20260905230044 | 77 | 187 | 9.0 | 17.0 | 0.00 | 0.00 | 0.00 | 26 | 1026.6 |
| 20260905225544 | 77 | 174 | 9.0 | 17.0 | 0.00 | 0.00 | 0.00 | 25 | 1026.6 |